San Jose, Costa Rica

3:42 AM CST on May 24, 2017 (GMT -0600)
Juan Santamaria International

Weather History for MROC - January, 2012

Change the Weather History Date:

Monday, January 23, 2012

  Actual Average Record
Temperature  
Mean Temperature 73 °F -  
Max Temperature 84 °F 81 °F 86 °F (1998)
Min Temperature 62 °F 64 °F 56 °F (2017)
Cooling Degree Days 8    
Growing Degree Days 23 (Base 50)    
Moisture  
Dew Point 57 °F    
Average Humidity 61    
Maximum Humidity 88    
Minimum Humidity 28    
Precipitation  
Precipitation 0.00 in 0.01 in - ()
Sea Level Pressure  
Sea Level Pressure 29.95 in    
Wind  
Wind Speed 10 mph ()    
Max Wind Speed 15 mph    
Max Gust Speed -    
Visibility 7.5 miles    
Events      
Averages and records for this station are not official NWS values.
T = Trace of Precipitation, MM = Missing Value Source: Averaged Metar Reports

Daily Weather History Graph

Daily Weather History Graph

Search for Another Location

Airport or City:

Trip Planner

Search our weather history database for the weather conditions in past years. The results will help you decide how hot, cold, wet, or windy it might be!

Date:

Astronomy

Jan. 23, 2012 Rise Set
Actual Time 5:59 AM CST 5:38 PM CST
Civil Twilight 5:37 AM CST 6:00 PM CST
Nautical Twilight 5:11 AM CST 6:25 PM CST
Astronomical Twilight 4:45 AM CST 6:51 PM CST
Moon 6:05 AM CST (1/23) 6:08 PM CST (1/23)
Length of Visible Light 12h 23m
Length of Day
11h 38m
New Moon, 0% of the Moon is Illuminated
Jan 23
New Moon
Jan 30
First Quarter
Feb 7
Full
Feb 14
Last Quarter
Feb 21
New

Hourly Weather History & Observations

Time (CST) Temp. Heat Index Dew Point Humidity Pressure Visibility Wind Dir Wind Speed Gust Speed Precip Events Conditions
12:00 AM 67 °F - 54 °F 53% 29.83 in 12 mi ESE 12.7 mph - -  
12:00 AM 66.2 °F - 53.6 °F 64% 29.99 in 6.2 mi ESE 12.7 mph - N/A   Unknown
1:00 AM 66.2 °F - 55.4 °F 68% 29.97 in 6.2 mi SE 15.0 mph - N/A   Unknown
2:00 AM 64.4 °F - 55.4 °F 73% 29.96 in 6.2 mi ENE 9.2 mph - N/A   Unknown
3:00 AM 64 °F - 54 °F 63% 29.80 in 12 mi East 11.5 mph - -  
3:00 AM 64.4 °F - 53.6 °F 68% 29.95 in 6.2 mi East 11.5 mph - N/A   Unknown
4:00 AM 64.4 °F - 53.6 °F 68% 29.96 in 6.2 mi ENE 4.6 mph - N/A   Unknown
5:00 AM 64.4 °F - 53.6 °F 68% 29.96 in 6.2 mi East 15.0 mph - N/A   Unknown
6:00 AM 65 °F - 54 °F 58% 29.86 in 12 mi East 13.8 mph - -  
6:00 AM 64.4 °F - 53.6 °F 68% 29.97 in 6.2 mi East 13.8 mph - N/A   Unknown
7:00 AM 68.0 °F - 55.4 °F 64% 30.00 in 6.2 mi ENE 5.8 mph - N/A   Unknown
8:00 AM 71.6 °F - 55.4 °F 57% 30.01 in 6.2 mi ESE 11.5 mph - N/A   Unknown
9:00 AM 77 °F - 55 °F 36% 29.85 in 12 mi ESE 11.5 mph - -  
9:00 AM 75.2 °F - 55.4 °F 50% 30.01 in 6.2 mi ESE 11.5 mph - N/A   Unknown
10:00 AM 78.8 °F - 53.6 °F 42% 30.01 in 6.2 mi ESE 12.7 mph - N/A   Unknown
11:00 AM 80.6 °F - 50.0 °F 34% 30.00 in 6.2 mi East 12.7 mph - N/A   Unknown
12:00 PM 82 °F - 55 °F 28% 29.85 in 12 mi East 10.4 mph - -   Scattered Clouds
12:00 PM 82.4 °F 81.7 °F 55.4 °F 39% 29.98 in 6.2 mi East 10.4 mph - N/A   Partly Cloudy
1:00 PM 82.4 °F - 51.8 °F 35% 29.95 in 6.2 mi East 8.1 mph - N/A   Partly Cloudy
2:00 PM 84.2 °F - 50.0 °F 30% 29.94 in 6.2 mi ESE 8.1 mph - N/A   Partly Cloudy
3:00 PM 78.8 °F - 64.4 °F 61% 29.92 in 6.2 mi SSW 8.1 mph - N/A   Scattered Clouds
4:00 PM 73.4 °F - 64.4 °F 73% 29.93 in 6.2 mi SW 13.8 mph - N/A   Scattered Clouds
5:00 PM 73.4 °F - 64.4 °F 73% 29.95 in 6.2 mi SW 11.5 mph - N/A   Scattered Clouds
6:00 PM 68.0 °F - 62.6 °F 83% 29.97 in 6.2 mi WSW 6.9 mph - N/A   Scattered Clouds
7:00 PM 68.0 °F - 62.6 °F 83% 29.98 in - North - - N/A   Unknown
8:00 PM 66.2 °F - 62.6 °F 88% 30.00 in 6.2 mi WSW 4.6 mph - N/A   Unknown
9:00 PM 68 °F - 63 °F 79% 29.90 in 12 mi NE 2.3 mph - -   Scattered Clouds
9:00 PM 68.0 °F - 62.6 °F 83% 30.03 in - NE 2.3 mph - N/A   Clear
10:00 PM 68.0 °F - 59.0 °F 73% 30.03 in - ENE 3.5 mph - N/A   Clear
11:00 PM 68.0 °F - 57.2 °F 68% 30.03 in - East 6.9 mph - N/A   Clear